Terug naar catalogus

STARLINK-3116

ActiefCommunicatieVLEO
NORAD 49146·PAYLOAD·🇺🇸 United States

Gelanceerd Sep 14, 2021 vanaf Vandenberg Space Force Base

Loading…

Volgende Passages (komende 24 uur)

TLE

VersSource: CelesTrak SupGP

Epoch: Sep 14, 2026, 20:43 UTC

1 49146C 21082S   26257.86368056 -.00046854  00000+0 -40091-2 0  2572
2 49146  70.0014 158.8733 0002690 269.8374 225.6684 14.97548691    17

Volg STARLINK-3116 in realtime met AllMySat

Download on the App Store